Big Bear Station Historical Data
Daily Summary for November 11, 2017 Units:  English    Metric   Both
« Previous Day
Next Day »
Daily Weekly Monthly Yearly Custom
  High: Low: Average:
Temperature: 61.5 °F 33.8 °F 45.6 °F
Dew Point: 28.5 °F -4.5 °F 18.1 °F
Humidity: 71 % 14 % 35 %
Wind Speed: 6.8 mph 0.0 mph 1.4 mph
Wind Gust: -999.0 mph - -
Wind:- - West
Pressure: 30.19 in 30.10 in -
Precipitation: 0.00 in    
Historical Graphs
 
 
Tabular Data for November 11, 2017
Time Temperature Dew Point Pressure Wind Wind Speed Wind Gust Humidity Rainfall Rate (Hourly)
00:13 36.7 °F 5.0 °F 30.11 in Calm   -999.0 mph 26 % 0 in
00:29 36.0 °F 1.7 °F 30.11 in Calm   -999.0 mph 23 % 0 in
00:44 36.7 °F 4.1 °F 30.11 in Calm   -999.0 mph 25 % 0 in
00:59 35.8 °F 5.0 °F 30.11 in SSE 1.1 mph -999.0 mph 27 % 0 in
01:14 35.4 °F 2.1 °F 30.11 in Calm   -999.0 mph 24 % 0 in
01:29 35.4 °F 6.3 °F 30.11 in Calm   -999.0 mph 29 % 0 in
01:45 36.3 °F 2.9 °F 30.11 in Calm   -999.0 mph 24 % 0 in
02:00 35.4 °F 14.0 °F 30.11 in Calm   -999.0 mph 41 % 0 in
02:15 37.0 °F 9.1 °F 30.11 in Calm   -999.0 mph 31 % 0 in
02:46 41.2 °F -4.5 °F 30.11 in Calm   -999.0 mph 14 % 0 in
03:01 42.1 °F -3.7 °F 30.11 in Calm   -999.0 mph 14 % 0 in
03:16 42.4 °F -2.1 °F 30.11 in Calm   -999.0 mph 15 % 0 in
03:31 42.8 °F 0.9 °F 30.10 in Calm   -999.0 mph 17 % 0 in
03:46 41.4 °F 16.4 °F 30.11 in Calm   -999.0 mph 36 % 0 in
04:02 40.8 °F 2.8 °F 30.11 in Calm   -999.0 mph 20 % 0 in
04:17 39.0 °F 5.2 °F 30.11 in Calm   -999.0 mph 24 % 0 in
04:33 37.6 °F 6.6 °F 30.11 in South 2.2 mph -999.0 mph 27 % 0 in
04:48 36.3 °F 13.1 °F 30.11 in Calm   -999.0 mph 38 % 0 in
05:04 35.6 °F 16.8 °F 30.12 in SSE 1.1 mph -999.0 mph 46 % 0 in
05:19 34.9 °F 17.2 °F 30.12 in Calm   -999.0 mph 48 % 0 in
05:34 34.2 °F 15.1 °F 30.12 in Calm   -999.0 mph 45 % 0 in
05:49 34.3 °F 15.1 °F 30.12 in South 1.7 mph -999.0 mph 45 % 0 in
06:04 34.3 °F 15.6 °F 30.12 in South 1.7 mph -999.0 mph 46 % 0 in
06:20 33.8 °F 14.7 °F 30.13 in Calm   -999.0 mph 45 % 0 in
06:35 33.8 °F 13.1 °F 30.13 in Calm   -999.0 mph 42 % 0 in
06:50 34.5 °F 13.2 °F 30.13 in Calm   -999.0 mph 41 % 0 in
07:05 34.7 °F 12.8 °F 30.13 in Calm   -999.0 mph 40 % 0 in
07:20 35.6 °F 13.6 °F 30.14 in Calm   -999.0 mph 40 % 0 in
07:36 35.2 °F 17.9 °F 30.14 in Calm   -999.0 mph 49 % 0 in
07:51 37.0 °F 14.9 °F 30.15 in Calm   -999.0 mph 40 % 0 in
08:06 38.8 °F 14.7 °F 30.15 in Calm   -999.0 mph 37 % 0 in
08:21 40.6 °F 18.1 °F 30.15 in Calm   -999.0 mph 40 % 0 in
08:37 45.9 °F 14.6 °F 30.16 in West 3.7 mph -999.0 mph 28 % 0 in
08:52 49.5 °F 17.7 °F 30.16 in North 2.7 mph -999.0 mph 28 % 0 in
09:07 51.1 °F 15.5 °F 30.16 in NNW 4.7 mph -999.0 mph 24 % 0 in
09:22 51.6 °F 14.0 °F 30.16 in NW 3.2 mph -999.0 mph 22 % 0 in
09:37 52.3 °F 14.5 °F 30.17 in SSW 1.7 mph -999.0 mph 22 % 0 in
09:53 54.1 °F 13.9 °F 30.17 in NW 5.3 mph -999.0 mph 20 % 0 in
10:08 55.0 °F 15.7 °F 30.16 in WNW 1.7 mph -999.0 mph 21 % 0 in
10:24 54.3 °F 16.2 °F 30.17 in NW 3.7 mph -999.0 mph 22 % 0 in
10:39 55.2 °F 15.9 °F 30.17 in WNW 3.7 mph -999.0 mph 21 % 0 in
10:54 56.5 °F 15.9 °F 30.17 in NNE 3.2 mph -999.0 mph 20 % 0 in
11:09 57.6 °F 20.0 °F 30.16 in NW 4.2 mph -999.0 mph 23 % 0 in
11:24 59.0 °F 21.2 °F 30.15 in NW 4.7 mph -999.0 mph 23 % 0 in
11:40 59.5 °F 21.6 °F 30.15 in NW 3.7 mph -999.0 mph 23 % 0 in
11:55 61.2 °F 22.0 °F 30.14 in SSW 1.1 mph -999.0 mph 22 % 0 in
12:10 61.5 °F 22.3 °F 30.13 in NNW 3.7 mph -999.0 mph 22 % 0 in
12:25 61.2 °F 23.1 °F 30.12 in NW 2.7 mph -999.0 mph 23 % 0 in
12:41 61.0 °F 23.9 °F 30.12 in NNW 6.3 mph -999.0 mph 24 % 0 in
12:56 60.6 °F 25.5 °F 30.12 in West 2.2 mph -999.0 mph 26 % 0 in
13:11 60.3 °F 26.2 °F 30.12 in NW 4.2 mph -999.0 mph 27 % 0 in
13:27 60.8 °F 28.3 °F 30.12 in NW 3.7 mph -999.0 mph 29 % 0 in
13:43 59.5 °F 27.2 °F 30.12 in NNW 1.7 mph -999.0 mph 29 % 0 in
13:58 59.4 °F 27.1 °F 30.12 in NW 4.2 mph -999.0 mph 29 % 0 in
14:13 58.5 °F 28.0 °F 30.12 in NW 4.7 mph -999.0 mph 31 % 0 in
14:28 57.7 °F 27.3 °F 30.13 in NW 3.7 mph -999.0 mph 31 % 0 in
14:44 57.0 °F 27.4 °F 30.13 in NNW 4.7 mph -999.0 mph 32 % 0 in
14:59 56.3 °F 26.0 °F 30.13 in NW 6.8 mph -999.0 mph 31 % 0 in
15:14 55.4 °F 26.8 °F 30.13 in NNW 2.7 mph -999.0 mph 33 % 0 in
15:30 54.7 °F 26.1 °F 30.13 in NNW 6.8 mph -999.0 mph 33 % 0 in
15:45 53.1 °F 26.2 °F 30.13 in NW 2.7 mph -999.0 mph 35 % 0 in
16:01 52.2 °F 24.7 °F 30.14 in West 2.2 mph -999.0 mph 34 % 0 in
16:16 51.3 °F 23.9 °F 30.14 in NW 1.7 mph -999.0 mph 34 % 0 in
16:31 50.5 °F 22.4 °F 30.14 in WNW 1.7 mph -999.0 mph 33 % 0 in
16:47 50.0 °F 20.5 °F 30.14 in South 2.2 mph -999.0 mph 31 % 0 in
17:02 49.5 °F 20.1 °F 30.14 in Calm   -999.0 mph 31 % 0 in
17:17 48.7 °F 19.4 °F 30.14 in SW 2.7 mph -999.0 mph 31 % 0 in
17:32 48.0 °F 18.8 °F 30.14 in SSE 1.1 mph -999.0 mph 31 % 0 in
17:47 47.5 °F 19.8 °F 30.14 in North 2.7 mph -999.0 mph 33 % 0 in
18:03 47.3 °F 20.3 °F 30.15 in Calm   -999.0 mph 34 % 0 in
18:18 46.9 °F 20.7 °F 30.15 in Calm   -999.0 mph 35 % 0 in
18:34 46.8 °F 19.2 °F 30.16 in Calm   -999.0 mph 33 % 0 in
18:49 46.8 °F 19.2 °F 30.16 in Calm   -999.0 mph 33 % 0 in
19:04 46.6 °F 21.1 °F 30.16 in Calm   -999.0 mph 36 % 0 in
19:19 47.1 °F 23.4 °F 30.16 in Calm   -999.0 mph 39 % 0 in
19:50 47.1 °F 25.2 °F 30.16 in South 1.7 mph -999.0 mph 42 % 0 in
20:05 45.9 °F 25.2 °F 30.16 in SSE 1.1 mph -999.0 mph 44 % 0 in
20:20 45.3 °F 24.7 °F 30.17 in Calm   -999.0 mph 44 % 0 in
20:35 43.5 °F 25.1 °F 30.17 in Calm   -999.0 mph 48 % 0 in
20:51 42.6 °F 27.6 °F 30.17 in Calm   -999.0 mph 55 % 0 in
21:06 41.9 °F 25.5 °F 30.18 in Calm   -999.0 mph 52 % 0 in
21:21 41.0 °F 24.7 °F 30.18 in Calm   -999.0 mph 52 % 0 in
21:36 40.5 °F 25.6 °F 30.18 in Calm   -999.0 mph 55 % 0 in
21:51 39.9 °F 25.5 °F 30.18 in Calm   -999.0 mph 56 % 0 in
22:07 39.2 °F 26.1 °F 30.18 in Calm   -999.0 mph 59 % 0 in
22:22 38.7 °F 26.0 °F 30.18 in Calm   -999.0 mph 60 % 0 in
22:37 38.5 °F 26.2 °F 30.18 in Calm   -999.0 mph 61 % 0 in
22:52 37.9 °F 27.2 °F 30.18 in Calm   -999.0 mph 65 % 0 in
23:07 37.6 °F 28.0 °F 30.18 in Calm   -999.0 mph 68 % 0 in
23:23 37.6 °F 28.3 °F 30.18 in Calm   -999.0 mph 69 % 0 in
23:38 37.0 °F 27.8 °F 30.18 in Calm   -999.0 mph 69 % 0 in
23:53 37.0 °F 28.5 °F 30.19 in Calm   -999.0 mph 71 % 0 in
Big Bear CA Weather
Compliments of Weather Underground - 1.5 mb